                ,  2.047,  2.194,  2.342,  2.490,  2.638,  2.785,  2.933,  3.081,  3.229,  3.376,  3.524,  3.672,  3.819,  3.967,  4.115,  4.263,  4.410,  4.558,  4.706,  4.853,  5.001,  5.149,  5.297,  5.444,  5.592,  5.740,  5.888,  6.035,  6.183,  6.331,  6.478,  6.626,  6.774,  6.922,  7.069,  7.217,  7.365,  7.512,  7.660,  7.808,  7.956,  8.103,  8.251,  8.399,  8.547,  8.694,  8.842,  8.990,  9.137,  9.285,  9.433,  9.581,  9.728,  9.876, 10.024, 10.171, 10.319, 10.467, 10.615, 10.762, 10.910, 11.058, 11.205, 11.353, 11.501, 11.649, 11.796, 11.944, 12.092, 12.240, 12.387, 12.535, 12.683, 12.830, 12.978, 13.126, 13.274, 13.421, 13.569, 13.717, 13.864, 14.012, 14.160, 14.308, 14.455, 14.603, 14.751, 14.899, 15.046, 15.194, 15.342, 15.489, 15.637, 15.785, 15.933, 16.080, 16.228, 16.376, 16.523, 16.671, 16.819, 16.967, 17.114, 17.262, 17.410, 17.557, 17.705, 17.853, 18.001, 18.148, 18.296, 18.444, 18.592, 18.739, 18.887, 19.035, 19.182, 19.330, 19.478, 19.626
2009/07/17 00:00,   -0.0,   -0.0,    0.1,    0.1,  999.0,   10.1,    9.5,    9.6,    8.8,    9.4,   10.1,   10.5,    9.9,    8.9,    8.9,    7.2,    5.7,    5.8,    5.9,    4.7,    3.9,    2.9,    1.3,   -0.4,   -1.2,   -1.2,   -1.1,   -1.5,   -2.9,   -3.5,   -4.5,   -4.9,   -5.0,   -5.0,   -1.9,    0.0,    1.8,    3.6,    3.7,    3.3,    1.9,   -0.9,   -4.1,   -7.9,  -12.3,  -14.0,  -14.1,  -14.6,  -15.6,  -17.9,  -18.8,  -21.6,  -20.4,  -22.5,  -19.6,  -19.3,  -19.8,  -20.1,  -20.8,  -21.5,  -21.3,  -21.7,  -22.4,  -22.7,  -23.5,  -24.9,  -25.3,  -24.9,  -23.2,  -21.8,  -20.3,  999.0,  999.0,  999.0,  999.0,  999.0,  999.0,  999.0,  999.0,  999.0,  999.0,  999.0,  999.0,  999.0,  999.0,  999.0,  999.0,  999.0,  999.0,  999.0,  -27.8,  999.0,  999.0,  999.0,  999.0,  999.0,  -29.5,  -27.4,  -16.5,  -10.1,   -3.4,    0.6,    7.2,   10.7,  999.0,    6.5,  999.0,  999.0,  999.0,  999.0,  999.0,  999.0,  999.0,  999.0,  999.0,  999.0,  999.0,  999.0,  999.0,  999.0
2009/07/17 00:10,    0.0,    0.1,    0.3,    0.7,  999.0,   10.0,    9.6,    9.9,    8.9,    9.5,   10.0,   10.5,   10.1,    8.7,    8.6,    6.6,    6.0,    5.5,    5.9,    4.9,    3.6,    2.9,    1.4,   -0.0,   -1.2,   -1.0,   -0.5,   -1.1,   -2.4,   -3.4,   -4.5,   -4.9,   -4.9,   -4.8,   -2.2,    0.1,    2.0,    3.8,    3.8,    3.6,    2.3,   -0.4,   -3.6,   -7.7,  -12.3,  -13.9,  -14.6,  -14.6,  -15.7,  -17.1,  -18.0,  -20.7,  -20.7,  -22.2,  -20.0,  -19.5,  -20.0,  -20.1,  -20.8,  -20.7,  -20.7,  -21.5,  -21.2,  -22.3,  -23.7,  -25.1,  -25.6,  -24.5,  -22.1,  -21.0,  999.0,  999.0,  999.0,  999.0,  999.0,  999.0,  999.0,  999.0,  999.0,  999.0,  999.0,  999.0,  999.0,  999.0,  999.0,  999.0,  999.0,  999.0,  999.0,  999.0,  -27.5,  999.0,  999.0,  999.0,  999.0,  999.0,  -28.8,  -26.2,  -16.0,  -10.2,   -4.2,    0.6,    6.1,   10.7,    8.6,    7.0,    9.1,  999.0,  999.0,  999.0,  999.0,  999.0,  999.0,  999.0,  999.0,  999.0,  999.0,  999.0,  999.0,  999.0
2009/07/17 00:20,   -0.1,    0.4,    0.3,    0.1,   10.2,   10.6,    9.8,    9.5,    9.3,    9.7,   10.2,   10.5,   10.0,    8.7,    8.7,    6.4,    6.0,    5.7,    6.0,    4.9,    3.4,    2.8,    1.5,    0.1,   -1.2,   -0.8,   -0.2,   -0.1,   -1.0,   -3.7,   -4.3,   -4.7,   -4.5,   -4.6,   -2.5,    0.4,    1.9,    3.8,    4.2,    4.1,    2.7,    0.3,   -3.4,   -6.7,  -11.6,  -13.7,  -14.6,  -14.9,  -15.4,  -16.4,  -17.6,  -19.7,  -20.8,  -21.4,  -20.8,  -19.7,  -19.6,  -19.8,  -19.9,  -20.1,  -21.0,  -21.1,  -21.7,  -23.0,  999.0,  -24.0,  -26.4,  -24.2,  -22.1,  -21.2,  999.0,  999.0,  999.0,  999.0,  -21.7,  999.0,  999.0,  999.0,  999.0,  999.0,  999.0,  999.0,  999.0,  999.0,  999.0,  999.0,  999.0,  999.0,  999.0,  999.0,  999.0,  999.0,  999.0,  999.0,  999.0,  999.0,  -29.9,  -27.5,  -15.2,  -10.1,   -3.7,    1.2,    6.9,   10.7,    9.7,    7.7,    8.7,  999.0,  999.0,  999.0,  999.0,  999.0,  999.0,  999.0,  999.0,  999.0,  999.0,  999.0,  999.0,  999.0
2009/07/17 00:30,   -0.1,   -0.0,    0.7,    1.2,   10.3,   10.4,    9.8,    9.5,    9.3,    9.7,   10.1,   10.2,    9.5,    8.8,    8.8,    6.3,    6.0,    5.7,    5.9,    4.5,    3.6,    2.7,    1.3,   -0.1,   -0.7,   -0.8,   -0.7,   -0.2,   -0.7,   -3.9,   -4.3,   -4.6,   -4.6,   -4.7,   -2.7,    0.5,    1.7,    3.9,    4.7,    4.5,    3.1,    0.5,   -3.4,   -7.0,  -11.6,  -13.6,  -14.3,  -14.7,  -15.2,  -16.3,  -17.3,  -19.8,  -20.3,  -20.6,  -20.7,  -20.6,  -19.5,  -19.9,  -20.1,  -20.2,  -21.1,  -21.5,  -21.7,  -21.2,  -22.4,  -23.8,  -25.7,  -23.9,  -22.2,  -20.4,  999.0,  999.0,  999.0,  999.0,  999.0,  999.0,  -22.7,  999.0,  999.0,  999.0,  999.0,  999.0,  999.0,  999.0,  999.0,  999.0,  999.0,  999.0,  999.0,  999.0,  -35.8,  999.0,  999.0,  999.0,  999.0,  -32.4,  -29.5,  -25.9,  -14.0,   -9.6,   -3.3,    1.6,    6.9,   10.1,    9.4,    6.5,    7.9,   11.8,   15.5,   17.5,  999.0,  999.0,  999.0,  999.0,  999.0,  999.0,  999.0,  999.0,  999.0,  999.0
